パンスターズ彗星

P/2012 B1 ( PanSTARRS )

English version
Home page
Updated on November 15, 2021

---------------------------------------------------------------------

・ プロフィール

発見日 2012年1月25日
発見光度 19.7等
発見者 Pan-STARRS 1 telescope (Haleakala)

・ 写真集

・ 軌道要素

Epoch 2013 July 7.0 TT = JDT 2456480.5
T 2013 July 23.11047 TT                                 MPCW
q   3.8251548            (2000.0)            P               Q
n   0.05958138     Peri.  162.17677     -0.94742208     +0.31023762
a   6.4922566      Node    36.19683     -0.30736610     -0.81421167
e   0.4108128      Incl.    7.62724     -0.08898022     -0.49072596
P  16.5
From 1136 observations 1997 June 1-2015 June 10, mean residual 0".5.

・ 星図

・ 光度変化

        m1 = 3.0 + 5 logΔ + 17.0 log r(t - 100)

---------------------------------------------------------------------

軌道要素はM.P.E.C. 2015-M77に掲載されたものです。
星図はステラナビゲータ Ver.8 (アストロアーツ) で作成したものです。
光度グラフはComet for Windowsで作成したものです。

---------------------------------------------------------------------

Copyright(C) Seiichi Yoshida (comet@aerith.net). All rights reserved.